• în România
  • Lista ţărilor
  • Pe 7 zile
  • Temperatura apei
  • Hartă satelitară
  • Meteo pe hartă
  • Widget-uri
  • user-avatar
    Intrare

    Meteo pe oră la Craiova

    Astăzi, 25 Septembrie, Marţi

    Timp Temperatura Precipitaţii Vânt Presiune Umiditate
    00:00 +11°C° 0 mm 7 m/s 758 mmHg 50%
    01:00 +11°C° 0 mm 7 m/s 758 mmHg 52%
    02:00 +10°C° 0 mm 6 m/s 758 mmHg 53%
    03:00 +9°C° 0 mm 6 m/s 759 mmHg 54%
    04:00 +9°C° 0 mm 6 m/s 759 mmHg 55%
    05:00 +8°C° 0 mm 5 m/s 759 mmHg 56%
    06:00 +9°C° 0 mm 6 m/s 760 mmHg 54%
    07:00 +9°C° 0 mm 6 m/s 760 mmHg 52%
    08:00 +10°C° 0 mm 6 m/s 760 mmHg 50%
    09:00 +13°C° 0 mm 6 m/s 760 mmHg 43%
    10:00 +15°C° 0 mm 6 m/s 761 mmHg 35%
    11:00 +17°C° 0 mm 7 m/s 761 mmHg 28%
    12:00 +17°C° 0 mm 6 m/s 761 mmHg 26%
    13:00 +19°C° 0 mm 6 m/s 761 mmHg 24%
    14:00 +20°C° 0 mm 6 m/s 760 mmHg 21%
    15:00 +19°C° 0 mm 6 m/s 761 mmHg 22%
    16:00 +19°C° 0 mm 6 m/s 761 mmHg 22%
    17:00 +17°C° 0 mm 6 m/s 761 mmHg 23%
    18:00 +15°C° 0 mm 5 m/s 761 mmHg 27%
    19:00 +14°C° 0 mm 5 m/s 762 mmHg 30%
    20:00 +12°C° 0 mm 4 m/s 763 mmHg 34%
    21:00 +11°C° 0 mm 4 m/s 763 mmHg 37%
    22:00 +10°C° 0 mm 3 m/s 764 mmHg 40%
    23:00 +9°C° 0 mm 3 m/s 765 mmHg 42%

    Mâine, 26 Septembrie, Miercuri

    Timp Temperatura Precipitaţii Vânt Presiune Umiditate
    00:00 +9°C° 0 mm 3 m/s 765 mmHg 44%
    01:00 +8°C° 0 mm 2 m/s 765 mmHg 46%
    02:00 +8°C° 0 mm 2 m/s 765 mmHg 49%
    03:00 +7°C° 0 mm 2 m/s 765 mmHg 50%
    04:00 +7°C° 0 mm 2 m/s 766 mmHg 52%
    05:00 +6°C° 0 mm 2 m/s 766 mmHg 53%
    06:00 +7°C° 0 mm 2 m/s 766 mmHg 50%
    07:00 +9°C° 0 mm 1 m/s 766 mmHg 48%
    08:00 +10°C° 0 mm 1 m/s 766 mmHg 45%
    09:00 +12°C° 0 mm 1 m/s 766 mmHg 40%
    10:00 +14°C° 0 mm 1 m/s 766 mmHg 36%
    11:00 +15°C° 0 mm 0 m/s 766 mmHg 31%
    12:00 +18°C° 0 mm 1 m/s 766 mmHg 29%
    13:00 +19°C° 0 mm 1 m/s 765 mmHg 26%
    14:00 +19°C° 0 mm 1 m/s 765 mmHg 24%
    15:00 +19°C° 0 mm 1 m/s 764 mmHg 24%
    16:00 +19°C° 0 mm 1 m/s 764 mmHg 23%
    17:00 +19°C° 0 mm 1 m/s 764 mmHg 23%
    18:00 +16°C° 0 mm 1 m/s 764 mmHg 27%
    19:00 +14°C° 0 mm 1 m/s 765 mmHg 30%
    20:00 +12°C° 0 mm 1 m/s 765 mmHg 34%
    21:00 +12°C° 0 mm 1 m/s 766 mmHg 35%
    22:00 +11°C° 0 mm 1 m/s 766 mmHg 37%
    23:00 +9°C° 0 mm 2 m/s 766 mmHg 38%

    Poimâine, 27 Septembrie, Joi

    Timp Temperatura Precipitaţii Vânt Presiune Umiditate
    00:00 +9°C° 0 mm 2 m/s 766 mmHg 40%
    01:00 +8°C° 0 mm 2 m/s 766 mmHg 42%
    02:00 +8°C° 0 mm 2 m/s 766 mmHg 44%
    03:00 +7°C° 0 mm 2 m/s 766 mmHg 46%
    04:00 +8°C° 0 mm 1 m/s 765 mmHg 48%
    05:00 +7°C° 0 mm 1 m/s 765 mmHg 49%
    06:00 +8°C° 0 mm 1 m/s 765 mmHg 47%
    07:00 +9°C° 0 mm 1 m/s 765 mmHg 45%
    08:00 +10°C° 0 mm 1 m/s 765 mmHg 42%
    09:00 +12°C° 0 mm 1 m/s 765 mmHg 38%
    10:00 +14°C° 0 mm 1 m/s 764 mmHg 34%
    11:00 +16°C° 0 mm 1 m/s 764 mmHg 29%
    12:00 +18°C° 0 mm 1 m/s 763 mmHg 27%
    13:00 +20°C° 0 mm 1 m/s 763 mmHg 25%
    14:00 +21°C° 0 mm 1 m/s 762 mmHg 22%
    15:00 +21°C° 0 mm 1 m/s 761 mmHg 22%
    16:00 +21°C° 0 mm 1 m/s 761 mmHg 22%
    17:00 +21°C° 0 mm 1 m/s 760 mmHg 22%
    18:00 +19°C° 0 mm 1 m/s 760 mmHg 25%
    19:00 +16°C° 0 mm 1 m/s 761 mmHg 27%
    20:00 +14°C° 0 mm 1 m/s 761 mmHg 30%
    21:00 +14°C° 0 mm 1 m/s 761 mmHg 31%
    22:00 +13°C° 0 mm 1 m/s 760 mmHg 32%
    23:00 +12°C° 0 mm 0 m/s 760 mmHg 33%

    28 Septembrie, Vineri

    Timp Temperatura Precipitaţii Vânt Presiune Umiditate
    00:00 +11°C° 0 mm 0 m/s 760 mmHg 34%
    01:00 +11°C° 0 mm 0 m/s 760 mmHg 35%
    02:00 +10°C° 0 mm 0 m/s 760 mmHg 36%
    03:00 +10°C° 0 mm 0 m/s 759 mmHg 37%
    04:00 +10°C° 0 mm 0 m/s 759 mmHg 38%
    05:00 +10°C° 0 mm 0 m/s 759 mmHg 39%
    06:00 +11°C° 0 mm 0 m/s 759 mmHg 38%
    07:00 +12°C° 0 mm 0 m/s 758 mmHg 36%
    08:00 +13°C° 0 mm 0 m/s 758 mmHg 35%
    09:00 +16°C° 0 mm 1 m/s 758 mmHg 32%
    10:00 +19°C° 0 mm 1 m/s 758 mmHg 29%
    11:00 +20°C° 0 mm 2 m/s 758 mmHg 26%
    12:00 +21°C° 0 mm 2 m/s 757 mmHg 26%
    13:00 +23°C° 0 mm 2 m/s 756 mmHg 27%
    14:00 +24°C° 0 mm 3 m/s 756 mmHg 27%
    15:00 +24°C° 0 mm 2 m/s 755 mmHg 27%
    16:00 +23°C° 0 mm 2 m/s 754 mmHg 28%
    17:00 +23°C° 0 mm 2 m/s 754 mmHg 29%
    18:00 +20°C° 0 mm 2 m/s 754 mmHg 32%
    19:00 +19°C° 0 mm 1 m/s 754 mmHg 35%
    20:00 +16°C° 0 mm 1 m/s 754 mmHg 38%
    21:00 +16°C° 0 mm 1 m/s 754 mmHg 39%
    22:00 +15°C° 0 mm 1 m/s 754 mmHg 40%
    23:00 +13°C° 0 mm 0 m/s 754 mmHg 41%

    29 Septembrie, Sâmbătă

    Timp Temperatura Precipitaţii Vânt Presiune Umiditate
    00:00 +13°C° 0 mm 0 m/s 754 mmHg 42%
    01:00 +13°C° 0 mm 0 m/s 754 mmHg 44%
    02:00 +12°C° 0 mm 0 m/s 753 mmHg 45%
    03:00 +13°C° 0 mm 1 m/s 753 mmHg 47%
    04:00 +13°C° 0 mm 1 m/s 753 mmHg 48%
    05:00 +13°C° 0 mm 1 m/s 753 mmHg 49%
    06:00 +14°C° 0 mm 1 m/s 753 mmHg 47%
    07:00 +15°C° 0 mm 1 m/s 753 mmHg 46%
    08:00 +15°C° 0 mm 1 m/s 753 mmHg 44%
    09:00 +18°C° 0 mm 1 m/s 753 mmHg 40%
    10:00 +19°C° 0 mm 2 m/s 753 mmHg 36%
    11:00 +21°C° 0 mm 2 m/s 753 mmHg 31%
    12:00 +23°C° 0 mm 2 m/s 753 mmHg 30%
    13:00 +24°C° 0 mm 2 m/s 752 mmHg 29%
    14:00 +25°C° 0 mm 2 m/s 752 mmHg 28%
    15:00 +25°C° 0 mm 1 m/s 752 mmHg 29%
    16:00 +25°C° 0 mm 1 m/s 752 mmHg 31%
    17:00 +25°C° 0 mm 1 m/s 752 mmHg 32%
    18:00 +23°C° 0 mm 1 m/s 752 mmHg 35%
    19:00 +21°C° 0 mm 1 m/s 753 mmHg 38%
    20:00 +20°C° 0 mm 1 m/s 753 mmHg 41%
    21:00 +19°C° 0 mm 1 m/s 754 mmHg 43%
    22:00 +18°C° 0 mm 1 m/s 754 mmHg 44%
    23:00 +18°C° 0 mm 1 m/s 754 mmHg 46%

    30 Septembrie, Duminică

    Timp Temperatura Precipitaţii Vânt Presiune Umiditate
    00:00 +16°C° 0 mm 2 m/s 755 mmHg 49%
    01:00 +16°C° 0 mm 2 m/s 755 mmHg 53%
    02:00 +14°C° 0 mm 3 m/s 755 mmHg 56%
    03:00 +14°C° 0 mm 3 m/s 755 mmHg 62%
    04:00 +13°C° 0 mm 3 m/s 756 mmHg 68%
    05:00 +13°C° 0 mm 3 m/s 756 mmHg 75%
    06:00 +13°C° 0 mm 3 m/s 756 mmHg 73%
    07:00 +14°C° 0 mm 3 m/s 757 mmHg 72%
    08:00 +14°C° 0 mm 3 m/s 757 mmHg 71%
    09:00 +17°C° 0 mm 3 m/s 757 mmHg 64%
    10:00 +18°C° 0 mm 3 m/s 757 mmHg 58%
    11:00 +20°C° 0 mm 3 m/s 757 mmHg 51%
    12:00 +21°C° 0 mm 3 m/s 757 mmHg 48%
    13:00 +22°C° 0 mm 3 m/s 756 mmHg 45%
    14:00 +24°C° 0 mm 2 m/s 756 mmHg 42%
    15:00 +22°C° 0 mm 3 m/s 756 mmHg 42%
    16:00 +22°C° 0 mm 3 m/s 756 mmHg 42%
    17:00 +22°C° 0 mm 3 m/s 756 mmHg 42%
    18:00 +21°C° 0 mm 3 m/s 756 mmHg 46%
    19:00 +19°C° 0 mm 3 m/s 756 mmHg 50%
    20:00 +17°C° 0 mm 3 m/s 756 mmHg 54%
    21:00 +17°C° 0 mm 3 m/s 756 mmHg 55%
    22:00 +16°C° 0 mm 3 m/s 756 mmHg 55%
    23:00 +16°C° 0 mm 3 m/s 757 mmHg 56%
    Arată mai mult